LAN2012 WSSS-RCTP

Flight info

Callsign LAN2012
Flight time N/A
Altitude 37000
Route VMR6A VMR M771 DUDIS M771 DOSUT/N0477F370 M771 DULOP DCT ENVAR M750 TONGA TONGA1A
Aircraft B772/H-SDE2E3FGHIJ5LORVWXY/LB1D1

Departure

Time 2026-05-06 19:09
Airport Singapore Changi Airport (WSSS)

Arrival

Time N/A
Airport Taiwan Taoyuan International Airport (RCTP)
Time Latitude Longitude Altitude Speed Heading
2026-05-06 18:41 1.34916 103.98168 41 ft 0 kts 71°
2026-05-06 18:54 1.34913 103.98159 40 ft 2 kts 71°
2026-05-06 18:54 1.34908 103.98145 40 ft 2 kts 71°
2026-05-06 18:54 1.34904 103.98131 40 ft 2 kts 71°
2026-05-06 18:55 1.34899 103.98117 40 ft 2 kts 79°
2026-05-06 18:55 1.34898 103.98102 39 ft 2 kts 101°
2026-05-06 18:55 1.34903 103.98087 39 ft 2 kts 119°
2026-05-06 18:55 1.34912 103.98075 39 ft 2 kts 137°
2026-05-06 18:56 1.34924 103.98067 39 ft 2 kts 156°
2026-05-06 18:56 1.34939 103.98062 39 ft 2 kts 174°
2026-05-06 18:56 1.34954 103.98063 39 ft 2 kts 192°
2026-05-06 18:56 1.34962 103.98065 39 ft 1 kts 202°
2026-05-06 18:57 1.34964 103.98066 39 ft 0 kts 201°
2026-05-06 18:59 1.34963 103.98065 39 ft 0 kts 201°
2026-05-06 18:59 1.34953 103.98061 39 ft 2 kts 201°
2026-05-06 18:59 1.34931 103.98053 39 ft 3 kts 201°
2026-05-06 18:59 1.34905 103.98043 39 ft 4 kts 201°
2026-05-06 19:00 1.34878 103.98032 40 ft 4 kts 202°
2026-05-06 19:00 1.34849 103.98020 40 ft 4 kts 202°
2026-05-06 19:00 1.34816 103.98006 40 ft 6 kts 203°
2026-05-06 19:00 1.34767 103.97986 39 ft 9 kts 201°
2026-05-06 19:01 1.34705 103.98002 38 ft 10 kts 126°
2026-05-06 19:01 1.34669 103.98073 38 ft 12 kts 113°
2026-05-06 19:01 1.34638 103.98147 39 ft 11 kts 113°
2026-05-06 19:01 1.34606 103.98221 40 ft 11 kts 113°
2026-05-06 19:02 1.34574 103.98296 41 ft 11 kts 113°
2026-05-06 19:02 1.34541 103.98373 41 ft 12 kts 113°
2026-05-06 19:02 1.34505 103.98455 41 ft 13 kts 113°
2026-05-06 19:02 1.34467 103.98546 40 ft 14 kts 113°
2026-05-06 19:03 1.34425 103.98643 39 ft 15 kts 112°
2026-05-06 19:03 1.34382 103.98747 38 ft 16 kts 112°
2026-05-06 19:03 1.34336 103.98854 37 ft 12 kts 113°
2026-05-06 19:03 1.34263 103.98882 36 ft 13 kts 195°
2026-05-06 19:04 1.34168 103.98845 34 ft 15 kts 203°
2026-05-06 19:04 1.34067 103.98802 35 ft 15 kts 203°
2026-05-06 19:04 1.33968 103.98760 36 ft 15 kts 203°
2026-05-06 19:04 1.33867 103.98717 35 ft 16 kts 203°
2026-05-06 19:05 1.33759 103.98672 34 ft 17 kts 203°
2026-05-06 19:05 1.33650 103.98626 35 ft 16 kts 203°
2026-05-06 19:05 1.33540 103.98579 35 ft 16 kts 203°
2026-05-06 19:05 1.33432 103.98534 36 ft 16 kts 203°
2026-05-06 19:06 1.33330 103.98491 38 ft 15 kts 203°
2026-05-06 19:06 1.33231 103.98450 39 ft 15 kts 203°
2026-05-06 19:06 1.33133 103.98408 39 ft 15 kts 203°
2026-05-06 19:06 1.33034 103.98367 40 ft 15 kts 203°
2026-05-06 19:07 1.32932 103.98323 38 ft 16 kts 203°
2026-05-06 19:07 1.32858 103.98314 38 ft 10 kts 148°
2026-05-06 19:07 1.32833 103.98383 37 ft 11 kts 79°
2026-05-06 19:07 1.32863 103.98461 37 ft 12 kts 62°
2026-05-06 19:08 1.32930 103.98518 37 ft 13 kts 27°
2026-05-06 19:08 1.33191 103.98631 35 ft 79 kts 23°
2026-05-06 19:08 1.33948 103.98949 35 ft 153 kts 23°
2026-05-06 19:08 1.35078 103.99432 264 ft 194 kts 23°
2026-05-06 19:09 1.36394 103.99981 790 ft 213 kts 22°
2026-05-06 19:09 1.37752 104.00540 1799 ft 218 kts 24°
2026-05-06 19:09 1.39169 104.01151 2661 ft 231 kts 24°
2026-05-06 19:09 1.40675 104.01793 3510 ft 245 kts 24°
2026-05-06 19:10 1.42285 104.02474 4043 ft 257 kts 24°
2026-05-06 19:10 1.43975 104.03188 4576 ft 268 kts 23°
2026-05-06 19:10 1.45688 104.03912 5291 ft 271 kts 24°
2026-05-06 19:10 1.47433 104.04640 6024 ft 273 kts 20°
2026-05-06 19:11 1.49324 104.04904 6658 ft 278 kts 354°
2026-05-06 19:11 1.51180 104.04349 7283 ft 283 kts 335°
2026-05-06 19:11 1.52937 104.03451 7946 ft 287 kts 332°
2026-05-06 19:11 1.54696 104.02491 8599 ft 290 kts 332°
2026-05-06 19:12 1.56481 104.01520 9222 ft 294 kts 333°
2026-05-06 19:12 1.58294 104.00539 9866 ft 298 kts 333°
2026-05-06 19:12 1.60156 103.99534 10400 ft 306 kts 333°
2026-05-06 19:12 1.62075 103.98499 10718 ft 322 kts 333°
2026-05-06 19:13 1.64102 103.97407 11027 ft 338 kts 333°
2026-05-06 19:13 1.66213 103.96268 11335 ft 353 kts 333°
2026-05-06 19:13 1.68453 103.95059 11661 ft 368 kts 333°
2026-05-06 19:13 1.70742 103.93825 11987 ft 380 kts 333°
2026-05-06 19:14 1.73085 103.92565 12424 ft 389 kts 334°
2026-05-06 19:14 1.75605 103.91560 12979 ft 391 kts 346°
2026-05-06 19:14 1.78315 103.91056 13575 ft 391 kts 356°
2026-05-06 19:14 1.81022 103.90853 14155 ft 394 kts 358°
2026-05-06 19:15 1.83772 103.90675 14703 ft 398 kts 358°
2026-05-06 19:15 1.86577 103.90497 15238 ft 402 kts 358°
2026-05-06 19:15 1.89363 103.90319 15757 ft 406 kts 358°
2026-05-06 19:15 1.92229 103.90137 16293 ft 410 kts 358°
2026-05-06 19:16 1.95069 103.89956 16815 ft 413 kts 358°
2026-05-06 19:16 1.97976 103.89771 17339 ft 416 kts 358°
2026-05-06 19:16 2.00856 103.89587 17835 ft 420 kts 358°
2026-05-06 19:16 2.03820 103.89398 18353 ft 424 kts 358°
2026-05-06 19:17 2.06768 103.89210 18846 ft 427 kts 358°
2026-05-06 19:17 2.09776 103.89018 19352 ft 430 kts 358°
2026-05-06 19:17 2.12758 103.88828 19849 ft 433 kts 358°
2026-05-06 19:17 2.15771 103.88637 20328 ft 437 kts 358°
2026-05-06 19:18 2.18846 103.88441 20806 ft 440 kts 358°
2026-05-06 19:18 2.21928 103.88244 21259 ft 444 kts 358°
2026-05-06 19:18 2.25035 103.88046 21704 ft 447 kts 359°
2026-05-06 19:18 2.28126 103.87849 22152 ft 451 kts 359°
2026-05-06 19:19 2.31306 103.87646 22599 ft 454 kts 358°
2026-05-06 19:19 2.34464 103.87537 23031 ft 455 kts
2026-05-06 19:19 2.37597 103.87894 23428 ft 456 kts 13°
2026-05-06 19:19 2.40661 103.88764 23846 ft 456 kts 23°
2026-05-06 19:20 2.43561 103.90136 24283 ft 456 kts 32°
2026-05-06 19:20 2.46271 103.91779 24716 ft 458 kts 33°
2026-05-06 19:20 2.48990 103.93472 25120 ft 461 kts 34°
2026-05-06 19:20 2.51714 103.95171 25497 ft 464 kts 33°
2026-05-06 19:21 2.54455 103.96880 25855 ft 467 kts 33°
2026-05-06 19:21 2.57238 103.98614 26224 ft 470 kts 33°
2026-05-06 19:21 2.60031 104.00353 26599 ft 472 kts 33°
2026-05-06 19:21 2.62810 104.02084 26942 ft 475 kts 33°
2026-05-06 19:22 2.65619 104.03834 27257 ft 478 kts 33°
2026-05-06 19:22 2.68477 104.05613 27568 ft 481 kts 33°
2026-05-06 19:22 2.71322 104.07385 27942 ft 484 kts 33°
2026-05-06 19:22 2.74196 104.09174 28399 ft 487 kts 33°
2026-05-06 19:23 2.77068 104.10963 28880 ft 488 kts 33°
2026-05-06 19:23 2.79976 104.12773 29371 ft 489 kts 33°
2026-05-06 19:23 2.82860 104.14568 29936 ft 488 kts 33°
2026-05-06 19:23 2.85742 104.16363 30559 ft 486 kts 33°
2026-05-06 19:24 2.88616 104.18153 31109 ft 480 kts 33°
2026-05-06 19:24 2.91452 104.19919 31391 ft 482 kts 33°
2026-05-06 19:24 2.94315 104.21703 31678 ft 484 kts 33°
2026-05-06 19:24 2.97179 104.23486 32065 ft 484 kts 33°
2026-05-06 19:25 3.00058 104.25279 32557 ft 481 kts 33°
2026-05-06 19:25 3.02908 104.27055 33110 ft 478 kts 33°
2026-05-06 19:25 3.05799 104.28855 33664 ft 475 kts 33°
2026-05-06 19:25 3.08607 104.30627 34193 ft 473 kts 33°
2026-05-06 19:26 3.11380 104.32391 34681 ft 471 kts 34°
2026-05-06 19:26 3.14142 104.34142 35177 ft 469 kts 33°
2026-05-06 19:26 3.16915 104.35869 35613 ft 467 kts 33°
2026-05-06 19:26 3.19661 104.37572 35992 ft 466 kts 33°
2026-05-06 19:27 3.22413 104.39278 36300 ft 466 kts 33°
2026-05-06 19:27 3.25199 104.41007 36598 ft 466 kts 33°
2026-05-06 19:27 3.27950 104.42714 36808 ft 467 kts 33°
2026-05-06 19:28 3.33474 104.46143 36803 ft 465 kts 33°
2026-05-06 19:28 3.38958 104.49548 36804 ft 465 kts 33°
2026-05-06 19:29 3.44454 104.52962 36803 ft 466 kts 33°
2026-05-06 19:29 3.49982 104.56396 36803 ft 466 kts 33°
2026-05-06 19:30 3.55489 104.59818 36803 ft 466 kts 33°
2026-05-06 19:30 3.61026 104.63260 36803 ft 465 kts 33°
2026-05-06 19:31 3.66518 104.66673 36808 ft 466 kts 33°
2026-05-06 19:31 3.74805 104.71826 36808 ft 466 kts 33°
2026-05-06 19:32 3.80328 104.75260 36807 ft 466 kts 33°
2026-05-06 19:32 3.85832 104.78684 36807 ft 466 kts 33°
2026-05-06 19:33 3.91358 104.82124 36807 ft 466 kts 33°
2026-05-06 19:33 3.96843 104.85537 36807 ft 466 kts 33°
2026-05-06 19:34 4.02347 104.88963 36806 ft 466 kts 33°
2026-05-06 19:34 4.07875 104.92404 36807 ft 467 kts 33°
2026-05-06 19:35 4.13399 104.95844 36807 ft 467 kts 33°
2026-05-06 19:35 4.18944 104.99297 36807 ft 466 kts 34°
2026-05-06 19:36 4.24466 105.02732 36815 ft 467 kts 33°
2026-05-06 19:36 4.29993 105.06166 36820 ft 467 kts 33°
2026-05-06 19:37 4.35530 105.09606 36814 ft 467 kts 33°
2026-05-06 19:37 4.41016 105.13015 36808 ft 466 kts 33°
2026-05-06 19:38 4.46545 105.16452 36805 ft 467 kts 33°
2026-05-06 19:38 4.52058 105.19880 36805 ft 467 kts 33°
2026-05-06 19:39 4.57595 105.23323 36805 ft 467 kts 33°
2026-05-06 19:39 4.63136 105.26770 36805 ft 468 kts 33°
2026-05-06 19:40 4.68667 105.30210 36805 ft 467 kts 33°
2026-05-06 19:40 4.74187 105.33645 36805 ft 468 kts 33°
2026-05-06 19:41 4.79750 105.37106 36804 ft 466 kts 33°
2026-05-06 19:41 4.85208 105.40590 36804 ft 467 kts 34°
2026-05-06 19:42 4.90673 105.44159 36804 ft 468 kts 34°
2026-05-06 19:42 4.96133 105.47720 36804 ft 468 kts 34°
2026-05-06 19:43 5.01611 105.51290 36802 ft 468 kts 34°
2026-05-06 19:43 5.07097 105.54864 36803 ft 468 kts 34°
2026-05-06 19:44 5.12556 105.58421 36804 ft 468 kts 34°
2026-05-06 19:44 5.18026 105.61985 36804 ft 467 kts 34°
2026-05-06 19:45 5.23498 105.65550 36804 ft 468 kts 34°
2026-05-06 19:45 5.28975 105.69120 36807 ft 468 kts 34°
2026-05-06 19:46 5.34418 105.72668 36807 ft 468 kts 34°
2026-05-06 19:46 5.39915 105.76251 36807 ft 469 kts 34°
2026-05-06 19:47 5.45385 105.79818 36807 ft 468 kts 34°
2026-05-06 19:47 5.50839 105.83375 36807 ft 467 kts 34°
2026-05-06 19:48 5.56319 105.86951 36806 ft 468 kts 34°
2026-05-06 19:48 5.61772 105.90509 36806 ft 468 kts 34°
2026-05-06 19:49 5.67254 105.94087 36806 ft 467 kts 35°
2026-05-06 19:49 5.72708 105.97648 36806 ft 467 kts 35°
2026-05-06 19:50 5.78147 106.01199 36807 ft 466 kts 35°
2026-05-06 19:50 5.83626 106.04778 36809 ft 468 kts 35°
2026-05-06 19:51 5.89074 106.08337 36808 ft 467 kts 34°
2026-05-06 19:51 5.94525 106.11898 36805 ft 467 kts 35°
2026-05-06 19:52 5.99987 106.15469 36805 ft 467 kts 35°
2026-05-06 19:52 6.05427 106.19025 36806 ft 466 kts 35°
2026-05-06 19:53 6.10899 106.22604 36804 ft 467 kts 35°
2026-05-06 19:53 6.16337 106.26160 36807 ft 468 kts 35°
2026-05-06 19:54 6.21831 106.29755 36806 ft 466 kts 34°
2026-05-06 19:54 6.27256 106.33305 36804 ft 468 kts 34°
2026-05-06 19:55 6.32744 106.36897 36805 ft 466 kts 34°
2026-05-06 19:55 6.38185 106.40459 36807 ft 467 kts 34°
2026-05-06 19:56 6.43678 106.44057 36804 ft 467 kts 34°
2026-05-06 19:56 6.49128 106.47627 36805 ft 467 kts 34°
2026-05-06 19:57 6.54567 106.51192 36804 ft 468 kts 34°
2026-05-06 19:57 6.60040 106.54778 36807 ft 468 kts 34°
2026-05-06 19:58 6.65499 106.58357 36804 ft 468 kts 34°
2026-05-06 19:58 6.70988 106.61957 36804 ft 467 kts 34°
2026-05-06 19:59 6.76416 106.65518 36806 ft 468 kts 34°
2026-05-06 19:59 6.81891 106.69111 36807 ft 468 kts 34°
2026-05-06 20:00 6.87387 106.72717 36807 ft 469 kts 34°
2026-05-06 20:00 6.92850 106.76304 36807 ft 469 kts 34°
2026-05-06 20:01 6.98299 106.79882 36809 ft 468 kts 34°
2026-05-06 20:01 7.03755 106.83469 36808 ft 469 kts 34°
2026-05-06 20:02 7.09236 106.87074 36815 ft 469 kts 34°
2026-05-06 20:02 7.14703 106.90672 36823 ft 470 kts 34°
2026-05-06 20:03 7.20181 106.94279 36818 ft 469 kts 34°
2026-05-06 20:03 7.25658 106.97885 36812 ft 469 kts 34°
2026-05-06 20:04 7.31123 107.01485 36810 ft 469 kts 34°
2026-05-06 20:04 7.36584 107.05083 36808 ft 469 kts 34°
2026-05-06 20:05 7.42049 107.08684 36808 ft 469 kts 34°
2026-05-06 20:05 7.47522 107.12292 36805 ft 470 kts 34°
2026-05-06 20:06 7.53021 107.15918 36808 ft 469 kts 34°
2026-05-06 20:06 7.58477 107.19518 36806 ft 469 kts 34°
2026-05-06 20:07 7.63938 107.23121 36806 ft 470 kts 34°
2026-05-06 20:07 7.69421 107.26739 36804 ft 469 kts 34°
2026-05-06 20:08 7.74869 107.30337 36805 ft 469 kts 34°
2026-05-06 20:08 7.80332 107.33944 36805 ft 468 kts 34°
2026-05-06 20:09 7.85805 107.37560 36804 ft 468 kts 34°
2026-05-06 20:09 7.91260 107.41165 36805 ft 469 kts 34°
2026-05-06 20:10 7.96706 107.44765 36804 ft 468 kts 34°
2026-05-06 20:10 8.02174 107.48381 36805 ft 469 kts 34°
2026-05-06 20:11 8.07619 107.51983 36804 ft 468 kts 34°
2026-05-06 20:11 8.13104 107.55613 36805 ft 469 kts 34°
2026-05-06 20:12 8.18543 107.59213 36806 ft 468 kts 34°
2026-05-06 20:12 8.24008 107.62833 36805 ft 469 kts 34°
2026-05-06 20:13 8.29448 107.66435 36807 ft 468 kts 34°
2026-05-06 20:13 8.34908 107.70054 36807 ft 470 kts 33°
2026-05-06 20:14 8.40372 107.73675 36807 ft 469 kts 34°
2026-05-06 20:14 8.45843 107.77303 36805 ft 469 kts 33°
2026-05-06 20:15 8.51292 107.80917 36807 ft 469 kts 33°
2026-05-06 20:15 8.56761 107.84546 36805 ft 469 kts 33°
2026-05-06 20:16 8.62218 107.88168 36805 ft 469 kts 33°
2026-05-06 20:16 8.67703 107.91811 36805 ft 469 kts 33°
2026-05-06 20:17 8.73164 107.95438 36816 ft 473 kts 33°
2026-05-06 20:17 8.78730 107.99136 36825 ft 481 kts 33°
2026-05-06 20:18 8.84360 108.02879 36829 ft 488 kts 33°
2026-05-06 20:18 8.90082 108.06683 36828 ft 495 kts 33°
2026-05-06 20:19 8.95876 108.10538 36817 ft 501 kts 33°
2026-05-06 20:19 9.01718 108.14425 36808 ft 504 kts 33°
2026-05-06 20:20 9.07585 108.18331 36812 ft 505 kts 33°
2026-05-06 20:20 9.13463 108.22245 36808 ft 506 kts 33°
2026-05-06 20:21 9.19372 108.26183 36809 ft 507 kts 33°
2026-05-06 20:21 9.25259 108.30107 36807 ft 505 kts 33°
2026-05-06 20:22 9.31146 108.34032 36808 ft 506 kts 33°
2026-05-06 20:22 9.37048 108.37969 36808 ft 505 kts 33°
2026-05-06 20:23 9.42934 108.41898 36808 ft 506 kts 33°
2026-05-06 20:23 9.48802 108.45814 36806 ft 506 kts 33°
2026-05-06 20:24 9.54697 108.49748 36806 ft 507 kts 33°
2026-05-06 20:24 9.60577 108.53674 36805 ft 507 kts 33°
2026-05-06 20:25 9.66474 108.57613 36805 ft 507 kts 33°
2026-05-06 20:25 9.72370 108.61553 36805 ft 505 kts 33°
2026-05-06 20:26 9.78254 108.65486 36806 ft 506 kts 33°
2026-05-06 20:26 9.84137 108.69421 36805 ft 507 kts 33°
2026-05-06 20:27 9.90017 108.73356 36806 ft 506 kts 33°
2026-05-06 20:27 9.95926 108.77311 36805 ft 507 kts 33°
2026-05-06 20:28 10.01812 108.81252 36805 ft 507 kts 33°
2026-05-06 20:28 10.07711 108.85199 36809 ft 506 kts 33°
2026-05-06 20:29 10.13628 108.89160 36810 ft 507 kts 33°
2026-05-06 20:29 10.19524 108.93109 36811 ft 508 kts 33°
2026-05-06 20:30 10.28382 108.99045 36826 ft 508 kts 33°
2026-05-06 20:31 10.34282 109.03001 36832 ft 507 kts 33°
2026-05-06 20:31 10.40174 109.06954 36833 ft 509 kts 33°
2026-05-06 20:32 10.46077 109.10916 36828 ft 508 kts 33°
2026-05-06 20:32 10.52012 109.14900 36829 ft 507 kts 33°
2026-05-06 20:33 10.57900 109.18856 36830 ft 508 kts 33°
2026-05-06 20:33 10.63795 109.22818 36832 ft 507 kts 33°
2026-05-06 20:34 10.69662 109.26763 36828 ft 508 kts 33°
2026-05-06 20:34 10.75561 109.30731 36828 ft 508 kts 33°
2026-05-06 20:35 10.81485 109.34718 36828 ft 508 kts 33°
2026-05-06 20:35 10.87414 109.38711 36828 ft 507 kts 33°
2026-05-06 20:36 10.93288 109.42668 36826 ft 508 kts 33°
2026-05-06 20:36 10.99212 109.46661 36824 ft 509 kts 33°
2026-05-06 20:37 11.05103 109.50634 36826 ft 508 kts 33°
2026-05-06 20:37 11.11031 109.54633 36829 ft 508 kts 33°
2026-05-06 20:38 11.16972 109.58559 36830 ft 508 kts 32°
2026-05-06 20:38 11.22927 109.62479 36831 ft 508 kts 32°
2026-05-06 20:39 11.28871 109.66394 36833 ft 508 kts 32°
2026-05-06 20:39 11.34793 109.70300 36831 ft 507 kts 32°
2026-05-06 20:40 11.40762 109.74239 36832 ft 507 kts 32°
2026-05-06 20:40 11.46696 109.78158 36830 ft 507 kts 32°
2026-05-06 20:41 11.52602 109.82060 36825 ft 508 kts 32°
2026-05-06 20:41 11.58571 109.86007 36828 ft 509 kts 32°
2026-05-06 20:42 11.64513 109.89937 36819 ft 509 kts 32°
2026-05-06 20:42 11.70491 109.93894 36821 ft 509 kts 32°
2026-05-06 20:43 11.76423 109.97822 36827 ft 508 kts 32°
2026-05-06 20:43 11.82348 110.01747 36838 ft 508 kts 32°
2026-05-06 20:44 11.88308 110.05698 36842 ft 509 kts 32°
2026-05-06 20:44 11.94290 110.09666 36843 ft 509 kts 32°
2026-05-06 20:45 12.00231 110.13608 36840 ft 510 kts 32°
2026-05-06 20:45 12.06171 110.17552 36832 ft 510 kts 32°
2026-05-06 20:46 12.12146 110.21521 36832 ft 510 kts 32°
2026-05-06 20:46 12.18107 110.25483 36832 ft 510 kts 32°
2026-05-06 20:47 12.24056 110.29439 36833 ft 510 kts 32°
2026-05-06 20:47 12.30027 110.33413 36836 ft 510 kts 32°
2026-05-06 20:48 12.35986 110.37380 36835 ft 510 kts 32°
2026-05-06 20:48 12.41893 110.41442 36833 ft 510 kts 33°
2026-05-06 20:49 12.47763 110.45550 36834 ft 510 kts 33°
2026-05-06 20:49 12.53659 110.49672 36834 ft 511 kts 33°
2026-05-06 20:50 12.59520 110.53767 36831 ft 510 kts 33°
2026-05-06 20:50 12.65430 110.57899 36829 ft 510 kts 33°
2026-05-06 20:51 12.71292 110.61996 36828 ft 510 kts 33°
2026-05-06 20:51 12.77186 110.66119 36825 ft 510 kts 33°
2026-05-06 20:52 12.83041 110.70214 36825 ft 510 kts 33°
2026-05-06 20:52 12.88915 110.74326 36825 ft 510 kts 33°
2026-05-06 20:53 12.94782 110.78434 36825 ft 510 kts 33°
2026-05-06 20:53 13.00659 110.82552 36825 ft 509 kts 33°
2026-05-06 20:54 13.06510 110.86655 36825 ft 509 kts 33°
2026-05-06 20:54 13.12353 110.90753 36828 ft 509 kts 33°
2026-05-06 20:55 13.18242 110.94887 36828 ft 509 kts 33°
2026-05-06 20:55 13.24092 110.98996 36828 ft 509 kts 33°
2026-05-06 20:56 13.29933 111.03101 36828 ft 509 kts 33°
2026-05-06 20:56 13.35816 111.07237 36828 ft 509 kts 33°
2026-05-06 20:57 13.41673 111.11358 36834 ft 510 kts 33°
2026-05-06 20:57 13.47523 111.15477 36845 ft 509 kts 33°
2026-05-06 20:58 13.53374 111.19598 36848 ft 509 kts 32°
2026-05-06 20:58 13.59263 111.23749 36848 ft 509 kts 32°
2026-05-06 20:59 13.65083 111.27854 36847 ft 509 kts 32°
2026-05-06 20:59 13.70944 111.31991 36847 ft 509 kts 33°
2026-05-06 21:00 13.76793 111.36121 36848 ft 509 kts 32°
2026-05-06 21:00 13.82637 111.40250 36847 ft 508 kts 32°
2026-05-06 21:01 13.88468 111.44373 36846 ft 508 kts 32°
2026-05-06 21:01 13.94333 111.48523 36846 ft 508 kts 32°
2026-05-06 21:02 14.00159 111.52640 36848 ft 509 kts 32°
2026-05-06 21:02 14.06035 111.56773 36847 ft 509 kts 32°
2026-05-06 21:03 14.11877 111.60884 36850 ft 509 kts 32°
2026-05-06 21:03 14.17727 111.65004 36849 ft 509 kts 32°
2026-05-06 21:04 14.23584 111.69132 36846 ft 509 kts 32°
2026-05-06 21:04 14.29457 111.73274 36847 ft 509 kts 32°
2026-05-06 21:05 14.35297 111.77396 36847 ft 509 kts 32°
2026-05-06 21:05 14.41140 111.81522 36846 ft 509 kts 32°
2026-05-06 21:06 14.47024 111.85680 36846 ft 508 kts 32°
2026-05-06 21:06 14.52877 111.89819 36847 ft 508 kts 32°
2026-05-06 21:07 14.58696 111.93935 36847 ft 508 kts 32°
2026-05-06 21:07 14.64555 111.98078 36844 ft 507 kts 32°
2026-05-06 21:08 14.70374 112.02196 36846 ft 507 kts 32°
2026-05-06 21:08 14.76208 112.06297 36846 ft 506 kts 32°
2026-05-06 21:09 14.82024 112.10381 36845 ft 506 kts 32°
2026-05-06 21:09 14.87871 112.14490 36845 ft 507 kts 32°
2026-05-06 21:10 14.93708 112.18596 36846 ft 507 kts 32°
2026-05-06 21:10 14.99555 112.22712 36845 ft 507 kts 32°
2026-05-06 21:11 15.05385 112.26818 36847 ft 507 kts 32°
2026-05-06 21:11 15.11218 112.30930 36850 ft 507 kts 32°
2026-05-06 21:12 15.17089 112.35072 36851 ft 506 kts 32°
2026-05-06 21:12 15.22916 112.39185 36852 ft 506 kts 32°
2026-05-06 21:13 15.28718 112.43283 36850 ft 507 kts 32°
2026-05-06 21:13 15.34571 112.47420 36853 ft 507 kts 32°
2026-05-06 21:14 15.40403 112.51547 36852 ft 506 kts 32°
2026-05-06 21:14 15.46244 112.55681 36847 ft 506 kts 32°
2026-05-06 21:15 15.52076 112.59811 36847 ft 506 kts 32°
2026-05-06 21:15 15.57895 112.63936 36850 ft 507 kts 32°
2026-05-06 21:16 15.63724 112.68071 36846 ft 506 kts 33°
2026-05-06 21:16 15.69553 112.72208 36847 ft 507 kts 33°
2026-05-06 21:17 15.75396 112.76359 36848 ft 506 kts 33°
2026-05-06 21:17 15.81185 112.80474 36848 ft 506 kts 33°
2026-05-06 21:18 15.87008 112.84615 36848 ft 506 kts 33°
2026-05-06 21:18 15.92812 112.88747 36845 ft 506 kts 33°
2026-05-06 21:19 15.98652 112.92907 36848 ft 506 kts 33°
2026-05-06 21:19 16.04465 112.97051 36844 ft 507 kts 33°
2026-05-06 21:20 16.10265 113.01189 36846 ft 506 kts 33°
2026-05-06 21:20 16.16103 113.05357 36849 ft 506 kts 33°
2026-05-06 21:21 16.21884 113.09486 36849 ft 505 kts 33°
2026-05-06 21:21 16.27680 113.13630 36849 ft 505 kts 33°
2026-05-06 21:22 16.33492 113.17789 36850 ft 506 kts 33°
2026-05-06 21:22 16.39298 113.21946 36849 ft 506 kts 33°
2026-05-06 21:23 16.45080 113.26089 36854 ft 505 kts 33°
2026-05-06 21:23 16.50890 113.30254 36860 ft 505 kts 33°
2026-05-06 21:24 16.56692 113.34418 36864 ft 505 kts 33°
2026-05-06 21:24 16.62448 113.38551 36864 ft 504 kts 33°
2026-05-06 21:25 16.68213 113.42694 36866 ft 504 kts 33°
2026-05-06 21:25 16.73988 113.46847 36868 ft 504 kts 33°
2026-05-06 21:26 16.79800 113.51030 36868 ft 504 kts 33°
2026-05-06 21:26 16.85541 113.55165 36868 ft 504 kts 33°
2026-05-06 21:27 16.91336 113.59342 36868 ft 503 kts 33°
2026-05-06 21:27 16.97082 113.63487 36867 ft 503 kts 33°
2026-05-06 21:28 17.02828 113.67635 36863 ft 503 kts 33°
2026-05-06 21:28 17.08620 113.71774 36863 ft 503 kts 33°
2026-05-06 21:29 17.14414 113.75897 36868 ft 503 kts 33°
2026-05-06 21:29 17.20217 113.80032 36869 ft 503 kts 33°
2026-05-06 21:30 17.25976 113.84139 36870 ft 503 kts 33°
2026-05-06 21:30 17.31737 113.88252 36867 ft 503 kts 33°
2026-05-06 21:31 17.37534 113.92394 36869 ft 504 kts 33°
2026-05-06 21:31 17.43348 113.96551 36866 ft 504 kts 33°
2026-05-06 21:32 17.49144 114.00700 36867 ft 504 kts 33°
2026-05-06 21:32 17.57894 114.06969 36866 ft 503 kts 33°
2026-05-06 21:33 17.63697 114.11130 36854 ft 503 kts 33°
2026-05-06 21:33 17.69495 114.15292 36851 ft 503 kts 33°
2026-05-06 21:34 17.74329 114.18764 36856 ft 504 kts 33°